1280361634616,32.0337
1280361694616,32.1082
1280361754616,32.1828
1280361814616,32.0499
1280361874616,32.0990
1280361934617,32.1124
1280361994617,32.1210
1280362054617,32.0126
1280362114617,32.2029
1280362174616,32.1079
1280362234617,32.0282
1280362294617,32.2433
1280362354617,32.1177
1280362414617,32.1367
1280362474617,32.2395
1280362534617,32.1836
1280362594617,32.1362
1280362654617,32.1565
1280362714617,32.0544
1280362774617,32.1224
1280362834617,32.1144
1280362894616,32.1216
1280362954616,32.1046
1280363014616,32.1444
1280363074616,32.1489
1280363134616,32.1634
1280363194616,32.1602
1280363254617,32.1558
1280363314617,32.1333
1280363374617,32.1649
1280363434617,32.1703
1280363494617,32.1407
1280363554616,32.1264
1280363614617,32.1071
1280363674617,32.0907
1280363734617,32.1419
1280363794617,32.0443
1280363854617,32.2370
1280363914617,32.0738
1280363974617,32.0467
1280364034617,32.0747
1280364094617,32.0886
1280364154617,32.1243
1280364214616,32.1808
1280364274616,32.1690
1280364334616,32.1212
1280364394616,32.1866
1280364454616,32.1857
1280364514616,32.0879
1280364574616,32.1109
1280364634617,32.0340
1280364694617,32.1472
1280364754617,32.1142
1280364814617,32.0161
1280364874616,32.1096
1280364934617,32.0644
1280364994617,32.0988
1280365054617,32.0756
1280365114617,32.1040
1280365174617,32.0542
1280365234620,32.0257
1280365294620,32.0100
1280365354620,32.0674
1280365414620,31.9985
1280365474620,32.0014
1280365534620,32.2465
1280365594620,32.1085
1280365654620,32.1058
1280365714620,32.0192
1280365774620,32.0717
1280365834620,31.9769
1280365894620,31.8813
1280365954620,31.9620
1280366014620,32.0199
1280366074620,31.9669
1280366134620,31.9050
1280366194620,31.8653
1280366254620,31.9142
1280366314620,31.8705
1280366374620,31.9496
1280366434620,31.8857
1280366494620,31.8098
1280366554620,31.8889
1280366614620,32.3526
1280366674620,31.8981
1280366734620,31.8971
1280366794620,31.8177
1280366854620,31.9151
1280366914620,31.8158
1280366974620,31.9246
1280367034620,31.8220
1280367094620,31.8875
1280367154620,31.9264
1280367214620,31.8236
1280367274620,31.9548
1280367334620,31.9187
1280367394620,31.8451
1280367454620,31.8625
1280367514620,31.9745
1280367574620,32.0058
1280367634620,31.8243
1280367694620,31.8572
1280367754620,31.9061
1280367814620,31.9277
1280367874620,31.8514
1280367934620,31.8342
1280367994620,31.8452
1280368054620,31.8797
1280368114620,31.9465
1280368174620,31.9058
1280368234620,31.8775
1280368294620,31.8634
1280368354620,31.9417
1280368414620,31.7713
1280368474620,31.8729
1280368534620,31.8455
1280368594620,31.8867
1280368654620,31.9199
1280368714620,31.9397
1280368774620,32.0003
1280368834623,32.0233
1280368894623,31.8427
1280368954623,31.8764
1280369014623,31.9775
1280369074623,31.8480
1280369134623,31.9838
1280369194623,31.8620
1280369254623,31.8372
1280369314623,32.0252
1280369374623,31.9619
1280369434623,32.1282
1280369494623,31.8231
1280369554623,31.9683
1280369614623,31.9004
1280369674623,31.9471
1280369734623,31.9686
1280369794623,32.0460
1280369854623,31.9650
1280369914623,31.9756
1280369974623,31.7776
1280370034623,31.8532
1280370094623,31.9413
1280370154623,31.9020
1280370214623,32.0393
1280370274623,31.9348
1280370334623,31.9042
1280370394623,31.8648
1280370454623,31.9332
1280370514623,31.9758
1280370574623,31.8919
1280370634623,31.9124
1280370694623,31.9338
1280370754623,31.8889
1280370814623,31.9011
1280370874623,31.9739
1280370934623,31.9039
1280370994623,31.9573
1280371054623,31.8729
1280371114623,31.9344
1280371174623,31.9082
1280371234623,31.9410
1280371294623,31.8992
1280371354623,31.9579
1280371414623,31.9642
1280371474623,31.8563
1280371534623,31.7864
1280371594623,31.9341
1280371654623,31.8420
1280371714623,31.8487
1280371774623,31.8954
1280371834623,31.9275
1280371894623,31.8694
1280371954623,31.7589
1280372014623,31.8225
1280372074623,31.7888
1280372134623,31.8333
1280372194623,31.8241
1280372254623,31.8162
1280372314623,31.8185
1280372374623,31.8292
1280372434625,31.8586
1280372494625,31.8283
1280372554625,31.8582
1280372614625,31.8309
1280372674625,31.7862
1280372734625,31.7813
1280372794625,31.8138
1280372854625,31.8592
1280372914625,31.7686
1280372974625,31.8252
1280373034625,31.8538
1280373094625,31.8257
1280373154625,31.8623
1280373214625,31.9120
1280373274625,31.8154
1280373334625,31.9043
1280373394625,31.7745
1280373454625,31.7683
1280373514625,31.8354
1280373574625,31.7876
1280373634625,31.7528
1280373694625,31.8542
1280373754625,31.7486
1280373814625,31.7742
1280373874625,31.6760
1280373934625,31.7667
1280373994625,31.6740
1280374054625,31.6781
1280374114625,31.7073
1280374174625,31.6132
1280374234625,31.6830
1280374294625,31.6888
1280374354625,31.6242
1280374414625,31.5949
1280374474625,31.6468
1280374534625,31.6994
1280374594625,31.6369
1280374654625,31.6631
1280374714625,31.7615
1280374774625,31.6398
1280374834625,31.7054
1280374894625,31.6977
1280374954625,31.7730
1280375014625,31.5895
1280375074625,31.7649
1280375134625,31.6255
1280375194625,31.5581
1280375254625,31.6456
1280375314625,31.6185
1280375374625,31.6561
1280375434625,31.7457
1280375494625,31.6594
1280375554625,31.6752
1280375614625,31.5803
1280375674625,31.7045
1280375734625,31.5895
1280375794625,31.6200
1280375854625,31.4924
1280375914625,31.5559
1280375974625,31.6203
1280376034627,31.6162
1280376094627,31.5828
1280376154627,31.5607
1280376214627,31.5657
1280376274627,31.6181
1280376334627,31.6581
1280376394627,31.5792
1280376454627,31.5730
1280376514627,31.5103
1280376574627,31.6156
1280376634627,31.5634
1280376694627,31.4659
1280376754627,31.5237
1280376814627,31.6171
1280376874627,31.6102
1280376934627,31.6276
1280376994627,31.6191
1280377054627,31.6049
1280377114627,31.5446
1280377174627,31.6305
1280377234627,31.5129
1280377294627,31.5369
1280377354627,31.5534
1280377414627,31.6932
1280377474627,31.6052
1280377534627,31.5071
1280377594627,31.6542
1280377654627,31.5945
1280377714627,31.5774
1280377774627,31.6527
1280377834627,31.5920
1280377894627,31.5552
1280377954627,31.4709
1280378014627,31.5431
1280378074627,31.4938
1280378134627,31.5152
1280378194627,31.4696
1280378254627,31.5212
1280378314627,31.6615
1280378374627,31.5685
1280378434627,31.5691
1280378494627,31.5486
1280378554627,31.5299
1280378614627,31.5526
1280378674627,31.5410
1280378734627,31.6147
1280378794627,31.5997
1280378854627,31.6240
1280378914627,31.5637
1280378974627,31.6347
1280379034627,31.6033
1280379094627,31.5775
1280379154627,31.5916
1280379214627,31.6161
1280379274627,31.6047
1280379334627,31.5993
1280379394627,31.5870
1280379454627,31.6624
1280379514627,31.6274
1280379574627,31.6737
1280379634628,31.7358
1280379694628,31.7024
1280379754629,31.7041
1280379814629,31.6904
1280379874629,31.7910
1280379934629,31.8006
1280379994629,31.7311
1280380054629,31.7565
1280380114629,31.7269
1280380174629,31.6425
1280380234628,31.7966
1280380294628,31.7844
1280380354628,31.7543
1280380414628,31.6514
1280380474628,31.8052
1280380534628,31.7957
1280380594628,31.7855
1280380654628,31.7420
1280380714628,31.7322
1280380774629,31.7774
1280380834629,31.7898
1280380894629,31.7536
1280380954628,31.7836
1280381014628,31.6818
1280381074629,31.7927
1280381134629,31.8335
1280381194629,31.8723
1280381254629,31.7565
1280381314629,31.6926
1280381374629,31.8208
1280381434629,31.8361
1280381494629,31.9476
1280381554629,31.7898
1280381614628,31.7981
1280381674628,31.7683
1280381734628,31.7889
1280381794628,31.7898
1280381854628,31.7583
1280381914628,31.7629
1280381974628,31.9213
1280382034628,31.8185
1280382094629,31.6995
1280382154629,31.7055
1280382214629,31.7263
1280382274628,31.7350
1280382334628,31.8579
1280382394628,31.7425
1280382454629,31.7873
1280382514629,31.8125
1280382574629,31.8001
1280382634629,31.7941
1280382694629,31.7840
1280382754629,31.8947
1280382814629,31.7947
1280382874629,31.7872
1280382934628,31.7438
1280382994628,31.7227
1280383054628,31.7206
1280383114628,31.7906
1280383174628,31.8934
1280383234630,31.8452
1280383294630,31.7404
1280383354630,31.8027
1280383414630,31.7930
1280383474630,31.8362
1280383534630,31.8410
1280383594630,31.7475
1280383654630,31.7421
1280383714630,31.8403
1280383774630,31.8179
1280383834630,31.8673
1280383894630,31.8558
1280383954630,31.9115
1280384014630,31.7780
1280384074630,31.7813
1280384134630,31.7578
1280384194630,31.8231
1280384254630,31.8205
1280384314630,31.8904
1280384374630,31.7690
1280384434630,31.8707
1280384494630,31.8173
1280384554630,31.7260
1280384614630,31.7180
1280384674630,31.7513
1280384734630,31.9106
1280384794630,31.6372
1280384854630,31.7737
1280384914630,31.9855
1280384974630,31.7753
1280385034630,31.7721
1280385094630,31.8273
1280385154630,31.8411
1280385214630,31.8197
1280385274630,31.7288
1280385334630,31.6911
1280385394630,31.7576
1280385454630,31.7444
1280385514630,31.7204
1280385574630,31.6719
1280385634630,31.8125
1280385694630,31.7536
1280385754630,31.6969
1280385814630,31.7509
1280385874630,31.7565
1280385934630,31.7445
1280385994630,31.6932
1280386054630,31.6952
1280386114630,31.6734
1280386174630,31.5889
1280386234630,31.6310
1280386294630,31.7114
1280386354630,31.7064
1280386414630,31.6736
1280386474630,31.7571
1280386534630,31.7630
1280386594630,31.6491
1280386654630,31.6692
1280386714630,31.7525
1280386774630,31.6978
1280386834631,31.5601
1280387434631,31.8843
1280387494631,31.7528
1280387554631,31.7484
1280387614631,31.7236
1280387674631,31.6599
1280387734631,31.6865
1280387794631,31.7088
1280387854631,31.7002
1280387914631,31.7361
1280387974631,31.5640
1280388034631,31.6367
1280388094631,31.7075
1280388154631,31.6097
1280388214631,31.6695
1280388274631,31.7427
1280388334631,31.6637
1280388394631,31.6744
1280388454631,31.6869
1280388514631,31.7376
1280388574631,31.6279
1280388634631,31.7473
1280388694631,31.7291
1280388754631,31.6565
1280388814631,31.6613
1280388874631,31.7692
1280388934631,31.5999
1280388994631,31.6547
1280389054631,31.6057
1280389114631,31.6807
1280389174631,31.6233
1280389234631,31.6373
1280389294631,31.5668
1280389354631,31.6260
1280389414631,31.6138
1280389474631,31.5825
1280389534631,31.5717
1280389594631,31.6346
1280389654631,31.5267
1280389714631,31.6789
1280389774631,31.6767
1280389834631,31.6397
1280389894631,31.7052
1280389954631,31.6403
1280390014631,31.5994
1280390074631,31.6096
1280390134631,31.6034
1280390194631,31.6081
1280390254631,31.7038
1280390314631,31.6228
1280390374631,31.6987
1280390434632,31.6635
1280390494632,31.6612
1280390554632,31.6143
1280390614632,31.6981
1280390674632,31.6562
1280390734632,31.6178
1280390794632,31.5879
1280390854632,31.5648
1280390914632,31.7512
1280390974632,31.6505
1280391034632,31.6170
1280391094632,31.6621
1280391154632,31.6622
1280391214632,31.5410
1280391274632,31.5698
1280391334632,31.6337
1280391394632,31.5859
1280391454632,31.6426
1280391514632,31.5483
1280391574632,31.6767
1280391634632,31.6546
1280391694632,31.6563
1280391754632,31.6317
1280391814632,31.6173
1280391874632,31.6426
1280391934632,31.6504
1280391994632,31.5476
1280392054632,31.5615
1280392114632,31.5138
1280392174632,31.5419
1280392234632,31.5293
1280392294632,31.6228
1280392354632,31.5345
1280392414632,31.5692
1280392474632,31.6184
1280392534632,31.5946
1280392594632,31.5803
1280392654632,31.6298
1280392714632,31.5719
1280392774632,31.5316
1280392834632,31.6803
1280392894632,31.5419
1280392954632,31.6206
1280393014632,31.5468
1280393074632,31.6789
1280393134632,31.6213
1280393194632,31.5902
1280393254632,31.6455
1280393314632,31.6571
1280393374632,31.5215
1280393434632,31.5214
1280393494632,31.6266
1280393554632,31.5493
1280393614632,31.6195
1280393674632,31.6663
1280393734632,31.5144
1280393794632,31.5546
1280393854632,31.5780
1280393914632,31.5533
1280393974632,31.7141
1280394034633,31.5883
1280394094633,31.5911
1280394154633,31.6374
1280394214633,31.6564
1280394274633,31.6153
1280394334633,31.7123
1280394394633,31.5864
1280394454633,31.5891
1280394514633,31.6069
1280394574633,31.6663
1280394634633,31.6973
1280394694633,31.6396
1280394754633,31.6617
1280394814633,31.6166
1280394874633,31.7024
1280394934633,31.7045
1280394994633,31.6659
1280395054633,31.6390
1280395114633,31.6127
1280395174633,31.6271
1280395234633,31.6518
1280395294633,31.7118
1280395354633,31.5993
1280395414633,31.7177
1280395474633,31.7024
1280395534633,31.6112
1280395594633,31.5531
1280395654633,31.7022
1280395714633,31.6921
1280395774633,31.6306
1280395834633,31.7109
1280395894633,31.6153
1280395954633,31.6879
1280396014633,31.6396
1280396074633,31.6707
1280396134633,31.7218
1280396194633,32.0629
1280396254633,31.5885
1280396314633,31.5289
1280396374633,31.6394
1280396434633,31.6691
1280396494633,31.5552
1280396554633,31.5882
1280396614633,31.5818
1280396674633,31.5940
1280396734633,31.7094
1280396794633,31.6586
1280396854633,31.4714
1280396914633,31.6035
1280396974633,31.5937
1280397034633,31.6052
1280397094633,31.6419
1280397154633,31.6586
1280397214633,31.6831
1280397274633,31.6855
1280397334633,31.6607
1280397394633,31.6719
1280397454633,31.6205
1280397514633,31.7091
1280397574633,31.6274
1280397634634,31.6887
1280397694634,31.5843
1280397754634,31.7072
1280397814634,31.7499
1280397874634,31.7069
1280397934634,31.6255
1280397994634,31.6291
1280398054634,31.6899
1280398114634,31.6755
1280398174634,31.7901
1280398234634,31.7486
1280398294634,31.7677
1280398354634,31.7358
1280398414634,31.7572
1280398474634,31.6983
1280398534634,31.7393
1280398594634,31.7907
1280398654634,31.7362
1280398714634,31.7001
1280398774634,31.7255
1280398834634,31.7492
1280398894634,31.7394
1280398954634,31.6614
1280399014634,31.6883
1280399074634,31.6485
1280399134634,31.6450
1280399194634,31.8501
1280399254634,31.7376
1280399314634,31.7803
1280399374634,31.6787
1280399434634,31.6768
1280399494634,31.7323
1280399554634,31.7153
1280399614634,31.7102
1280399674634,31.7642
1280399734634,31.7774
1280399794634,31.7924
1280399854634,31.7367
1280399914634,31.8439
1280399974634,31.8050
1280400034634,31.7646
1280400094634,31.7246
1280400154634,31.8797
1280400214634,31.8729
1280400274634,31.8954
1280400334634,31.8461
1280400394634,31.9136
1280400454634,31.8604
1280400514634,31.8308
1280400574634,31.6810
1280400634634,31.7951
1280400694634,31.9556
1280400754634,31.7675
1280400814634,31.9349
1280400874634,31.8368
1280400934634,31.8161
1280400994634,31.8523
1280401054634,31.9153
1280401114634,31.8968
1280401174634,31.8644
1280401234635,31.8673
1280401294635,31.9355
1280401354635,31.9396
1280401414635,31.9278
1280401474635,31.9198
1280401534635,31.9340
1280401594635,31.8780
1280401654635,31.9049
1280401714635,31.9647
1280401774635,31.9891
1280401834635,31.9239
1280401894635,31.9407
1280401954635,32.0061
1280402014635,32.0367
1280402074635,31.9372
1280402134635,32.0857
1280402194635,32.0539
1280402254635,31.9800
1280402314635,32.0214
1280402374635,32.0272
1280402434635,32.0677
1280402494635,31.9596
1280402554635,31.9990
1280402614635,32.0293
1280402674635,32.0002
1280402734635,31.9984
1280402794635,31.9885
1280402854635,31.9669
1280402914635,32.0749
1280402974635,32.0134
1280403034635,32.0195
1280403094635,31.9787
1280403154635,32.0474
1280403214635,31.9057
1280403274635,32.0401
1280403334635,31.9970
1280403394635,32.1738
1280403454635,32.0257
1280403514635,32.0385
1280403574635,32.0354
1280403634635,32.1394
1280403694635,32.0294
1280403754635,31.9445
1280403814635,32.1033
1280403874635,32.1256
1280403934635,31.9609
1280403994635,32.1240
1280404054635,32.0399
1280404114635,32.0063
1280404174635,32.0843
1280404234635,32.1948
1280404294635,32.0431
1280404354635,32.1636
1280404414635,32.0912
1280404474635,32.0775
1280404534635,32.0818
1280404594635,32.0297
1280404654635,32.0669
1280404714635,32.0219
1280404774635,32.1032
1280404834635,32.0898
1280404894635,32.1022
1280404954635,32.0783
1280405014635,32.1872
1280405074635,32.0428
1280405134635,32.0197
1280405194635,32.2162
1280405254635,32.1388
1280405314635,32.1267
1280405374635,32.1839
1280405434635,32.1702
1280405494635,32.1296
1280405554635,32.1779
1280405614635,32.1132
1280405674635,31.9834
1280405734635,32.1228
1280405794635,32.1373
1280405854635,32.1446
1280405914635,32.2459
1280405974635,32.1604
1280406034635,32.1475
1280406094635,32.2154
1280406154635,32.2069
1280406214635,32.1258
1280406274635,32.2080
1280406334635,32.1790
1280406394635,32.1884
1280406454635,32.1792
1280406514635,32.1809
1280406574635,32.2738
1280406634635,32.1761
1280406694635,32.1792
1280406754635,32.1379
1280406814635,32.1051
1280406874635,32.1558
1280406934635,32.1559
1280406994635,32.1632
1280407054635,32.0702
1280407114635,32.1795
1280407174635,32.1126
1280407234635,32.1408
1280407294635,32.1766
1280407354635,32.1875
1280407414635,32.1604
1280407474635,32.3653
1280407534635,32.2408
1280407594635,32.3027
1280407654635,32.1896
1280407714635,32.2600
1280407774635,32.2551
1280407834635,32.2030
1280407894635,32.2026
1280407954635,32.1735
1280408014635,32.4501
1280408074635,32.2667
1280408134635,32.1194
1280408194635,32.3229
1280408254635,32.1850
1280408314635,32.2542
1280408374635,32.1586
1280408434636,32.3439
1280408494636,32.2910
1280408554636,32.2603
1280408614636,32.3937
1280408674636,32.2921
1280408734636,32.3721
1280408794636,32.3684
1280408854636,32.4294
1280408914636,32.3757
1280408974636,32.3402
1280409034636,32.4602
1280409094636,32.3181
1280409154636,32.3326
1280409214636,32.4337
1280409274636,32.3574
1280409334636,32.3933
1280409394636,32.4274
1280409454636,32.4205
1280409514636,32.2750
1280409574636,32.4508
1280409634636,32.2526
1280409694636,32.3343
1280409754636,32.3455
1280409814636,32.2611
1280409874636,32.4698
1280409934636,32.3403
1280409994636,32.3741
1280410054636,32.5047
1280410114636,32.3655
1280410174636,32.4489
1280410234636,32.4429
1280410294636,32.4700
1280410354636,32.4237
1280410414636,32.4927
1280410474636,32.5245
1280410534636,32.4465
1280410594636,32.3649
1280410654636,32.4627
1280410714636,32.3833
1280410774636,32.2864
1280410834636,32.4443
1280410894636,32.4319
1280410954636,32.3162
1280411014636,32.3994
1280411074636,32.3933
1280411134636,32.4511
1280411194636,32.4538
1280411254636,32.3349
1280411314636,32.4258
1280411374636,32.4665
1280411434636,32.4707
1280411494636,32.5019
1280411554636,32.4675
1280411614636,32.4437
1280411674636,32.5781
1280411734636,32.3799
1280411794636,32.3356
1280411854636,32.3679
1280411914636,32.4800
1280411974636,32.5369
1280412034637,32.4840
1280412094637,32.4489
1280412154637,32.4021
1280412214637,32.3515
1280412274637,32.4439
1280412334637,32.5478
1280412394637,32.3987
1280412454637,32.5027
1280412514637,32.5133
1280412574637,32.4140
1280412634637,32.3933
1280412694637,32.3600
1280412754637,32.5264
1280412814637,32.5234
1280412874637,32.3952
1280412934637,32.3788
1280412994637,32.3204
1280413054637,32.4528
1280413114637,32.4492
1280413174637,32.3960
1280413234637,32.4408
1280413294637,32.4448
1280413354637,32.4615
1280413414637,32.3606
1280413474637,32.4815
1280413534637,32.3778
1280413594637,32.3813
1280413654637,32.4159
1280413714637,32.4583
1280413774637,32.3824
1280413834637,32.3335
1280413894637,32.2808
1280413954637,32.3219
1280414014637,32.4060
1280414074637,32.3891
1280414134637,32.3654
1280414194637,32.3254
1280414254637,32.3631
1280414314637,32.3099
1280414374637,32.4363
1280414434637,32.2886
1280414494637,32.3146
1280414554637,32.3068
1280414614637,32.4099
1280414674637,32.4264
1280414734637,32.3865
1280414794637,32.2656
1280414854637,32.3430
1280414914637,32.4123
1280414974637,32.3242
1280415034637,32.3456
1280415094637,32.3080
1280415154637,32.3728
1280415214637,32.3678
1280415274637,32.4078
1280415334637,32.2193
1280415394637,32.2389
1280415454637,32.2847
1280415514637,32.3207
1280415574637,32.3722
1280415634638,32.3673
1280415694638,32.2781
1280415754638,32.2340
1280415814638,32.2571
1280415874638,32.1950
1280415934638,32.2744
1280415994638,32.3342
1280416054638,32.2585
1280416114638,32.2502
1280416174638,32.2360
1280416234638,32.3254
1280416294638,32.2367
1280416354638,32.2853
1280416414638,32.2752
1280416474638,32.3845
1280416534638,32.2654
1280416594638,32.1410
1280416654638,32.2448
1280416714638,32.2700
1280416774638,32.2542
1280416834638,32.3444
1280416894638,32.1600
1280416954638,32.2669
1280417014638,32.1376
1280417074638,32.3019
1280417134638,32.2806
1280417194638,32.2600
1280417254638,32.1782
1280417314638,32.2593
1280417374638,32.1741
1280417434638,32.1929
1280417494638,32.1898
1280417554638,32.1672
1280417614638,32.1896
1280417674638,32.2229
1280417734638,32.0926
1280417794638,32.1553
1280417854638,32.1234
1280417914638,32.2236
1280417974638,32.1236
1280418034638,32.1071
1280418094638,32.1910
1280418154638,32.2370
1280418214638,32.2929
1280418274638,32.1284
1280418334638,32.1430
1280418394638,32.1636
1280418454638,32.0329
1280418514638,32.1796
1280418574638,32.0219
1280418634638,32.2127
1280418694638,31.9931
1280418754638,32.2524
1280418814638,32.0483
1280418874638,31.9061
1280418934638,32.0944
1280418994638,32.0697
1280419054638,32.0631
1280419114638,31.8957
1280419174638,31.9819
1280419234640,32.0707
1280419294640,31.9807
1280419354640,32.0798
1280419414640,31.9458
1280419474640,31.9942
1280419534640,32.0671
1280419594640,32.0484
1280419654640,32.0842
1280419714640,32.0600
1280419774640,32.0297
1280419834640,32.0012
1280419894640,32.0340
1280419954640,32.0603
1280420014640,31.9765
1280420074640,31.9315
1280420134640,32.1035
1280420194640,31.9462
1280420254640,31.8658
1280420314640,32.0076
1280420374640,31.9740
1280420434640,31.8932
1280420494640,31.9634
1280420554640,31.9903
1280420614640,31.9334
1280420674640,32.0306
1280420734640,32.0063
1280420794640,31.9625
1280420854640,32.0285
1280420914640,31.9987
1280420974640,31.9833
1280421034640,31.8475
1280421094640,31.8983
1280421154640,31.9402
1280421214640,31.9879
1280421274640,31.8930
1280421334640,31.9526
1280421394640,31.9034
1280421454640,31.9887
1280421514640,31.9665
1280421574640,31.9140
1280421634640,32.0129
1280421694640,31.9818
1280421754640,31.9480
1280421814640,32.0082
1280421874640,31.9630
1280421934640,31.9712
1280421994640,31.8945
1280422054640,31.9914
1280422114640,31.9462
1280422174640,32.0764
1280422234640,31.9034
1280422294640,31.8932
1280422354640,31.9795
1280422414640,32.0616
1280422474640,32.0613
1280422534640,32.1030
1280422594640,32.1142
1280422654640,32.0229
1280422714640,32.1495
1280422774640,32.0474
1280422834641,32.0711
1280422894641,32.0460
1280422954641,32.0233
1280423014641,32.0737
1280423074641,32.0993
1280423134641,32.1146
1280423194641,32.0612
1280423254641,32.0893
1280423314641,32.0136
1280423374641,32.0864
1280423434641,32.0942
1280423494641,32.0597
1280423554641,32.0583
1280423614641,32.2436
1280423674641,32.1396
1280423734641,32.1878
1280423794641,32.1541
1280423854641,32.1085
1280423914641,32.1402
1280423974641,32.1062
1280424034641,32.1465
1280424094641,32.1273
1280424154641,32.2026
1280424214641,32.0883
1280424274641,32.1527
1280424334641,32.2540
1280424394641,32.1357
1280424454641,32.3601
1280424514641,32.2096
1280424574641,32.3418
1280424634641,32.2055
1280424694641,32.2314
1280424754641,32.2387
1280424814641,32.2101
1280424874641,32.3449
1280424934641,32.2707
1280424994641,32.3057
1280425054641,32.2905
1280425114641,32.2559
1280425174641,32.3448
1280425234641,32.3082
1280425294641,32.2914
1280425354641,32.3425
1280425414641,32.3587
1280425474641,32.3115
1280425534641,32.2902
1280425594641,32.4208
1280425654641,32.3877
1280425714641,32.4428
1280425774641,32.4392
1280425834641,32.4036
1280425894641,32.2753
1280425954641,32.4425
1280426014641,32.3821
1280426074641,32.3702
1280426134641,32.3726
1280426194641,32.4208
1280426254641,32.3816
1280426314641,32.3427
1280426374641,32.4161
1280426434643,32.3508
1280426494643,32.4017
1280426554643,32.4040
1280426614643,32.4331
1280426674643,32.4204
1280426734643,32.4874
1280426794643,32.4486
1280426854643,32.4478
1280426914643,32.4235
1280426974643,32.5019
1280427034643,32.3681
1280427094643,32.4987
1280427154643,32.5259
1280427214643,32.4235
1280427274643,32.4577
1280427334643,32.5097
1280427394643,32.4504
1280427454643,32.4781
1280427514643,32.5233